[[{"header":{"parameterUnit":"m.s-1","parameterCategory":2,"la1":30.2991,"la2":30.254,"lo1":-89.0895,"lo2":-89.0444,"dy":0.0017,"dx":0.0017,"nx":28,"ny":28,"refTime":"2025-05-18T21:00:00:Z","depth":"0","parameterNumber":2,"parameterNumberName":"U-component_of_CURRENTS"},"data":[0,0,0,0,0,0,0,0,0,0,0,0,0,0,0,0,0,0,0,0,0,0,0,0,0,0,0,0,0,0,0,0,0,0,0,0,0,0,0,0,0,0,0,0,0,0,0,0,0,0,0,0,0,0,0,0,0,0,-0.2598,-0.2599,0,-0.261,-0.2609,-0.2608,-0.258,-0.258,-0.258,-0.258,-0.2406,-0.2402,-0.2397,0,0,0,0,0,0,0,0,0,0,0,0,0,-0.2471,-0.2473,-0.2598,-0.2599,-0.26,-0.261,-0.2609,-0.2608,-0.258,-0.258,-0.258,-0.258,-0.2407,-0.2402,-0.2397,0,0,0,0,0,0,0,0,0,0,0,0,0,-0.2501,-0.2474,-0.2598,-0.2593,-0.2594,-0.261,-0.2609,-0.2608,-0.258,-0.258,-0.258,-0.258,-0.2409,-0.2403,-0.2396,-0.2357,0,0,-0.2375,-0.2372,0,0,0,0,0,0,0,0,-0.2499,-0.2504,-0.2593,-0.2594,-0.2594,-0.2601,-0.2501,-0.2518,-0.258,-0.2576,-0.258,-0.258,-0.246,-0.2449,-0.2441,-0.2348,-0.2341,-0.2374,-0.237,-0.2367,-0.2365,0,0,0,0,0,0,0,-0.2497,-0.2503,-0.2594,-0.2594,-0.2595,-0.2564,-0.2568,-0.2504,-0.2508,-0.2576,-0.2577,-0.2592,-0.2457,-0.2448,-0.2437,-0.2338,-0.2375,-0.2369,-0.2364,-0.2362,-0.2234,-0.2235,0,0,0,0,0,0,-0.2518,-0.2502,-0.2593,-0.2595,-0.2555,-0.2567,-0.2571,-0.2592,-0.2513,-0.2505,-0.2592,-0.2591,-0.246,-0.2445,-0.243,-0.2379,-0.2367,-0.2361,-0.2357,-0.2233,-0.2234,-0.2235,0,0,0,0,0,0,-0.2516,-0.2526,-0.2593,-0.2555,-0.2562,-0.2571,-0.2594,-0.2592,-0.2589,-0.2529,-0.2515,-0.2593,-0.2459,-0.244,-0.2393,-0.2371,-0.2358,-0.2352,-0.2233,-0.2234,-0.2235,-0.2274,0,0,0,0,0,0,-0.2512,-0.2525,-0.2527,-0.2557,-0.2566,-0.2605,-0.2595,-0.2593,-0.2603,-0.2601,-0.2524,-0.2508,-0.2458,-0.2404,-0.2386,-0.2362,-0.2346,-0.2232,-0.2233,-0.2234,-0.2272,-0.2277,-0.228,0,0,0,0,0,-0.2507,-0.249,-0.2527,-0.2537,-0.2575,-0.2607,-0.2607,-0.2606,-0.2604,-0.2601,-0.2563,-0.2511,-0.2399,-0.2399,-0.2378,-0.2351,-0.2231,-0.2233,-0.2234,-0.227,-0.2276,-0.228,0,0,0,0,0,0,-0.2405,-0.2489,-0.2528,-0.2531,-0.2581,-0.2605,-0.2577,-0.2612,-0.2583,-0.2558,-0.2515,-0.2496,-0.2449,-0.2404,-0.2406,-0.2324,-0.2307,-0.2305,-0.2342,-0.2346,-0.235,-0.2338,-0.2341,0,0,0,0,0,-0.24,-0.2417,-0.2504,-0.25,-0.252,-0.256,-0.2567,-0.2585,-0.2579,-0.2567,-0.254,-0.2488,-0.2439,-0.2399,-0.2353,-0.2298,-0.2251,-0.2272,-0.2276,-0.228,-0.226,-0.2216,-0.2214,-0.224,-0.224,-0.224,0,0,-0.2355,-0.2402,-0.2409,-0.2482,-0.2497,-0.2513,-0.2558,-0.2562,-0.2571,-0.2545,-0.2517,-0.2501,-0.2434,-0.2385,-0.2358,-0.234,-0.2246,-0.2282,-0.2285,-0.2262,-0.2218,-0.2215,-0.2212,-0.2241,-0.2241,-0.2241,0,0,-0.2263,-0.232,-0.2307,-0.2354,-0.2411,-0.2452,-0.2468,-0.2523,-0.2536,-0.2529,-0.252,-0.2503,-0.2425,-0.2394,-0.2357,-0.2354,-0.2281,-0.2342,-0.2329,-0.2289,-0.2285,-0.2282,-0.2209,-0.2198,-0.2331,-0.2331,-0.2331,0,-0.2195,-0.2229,-0.2302,-0.2305,-0.2339,-0.243,-0.2435,-0.2456,-0.2497,-0.2502,-0.2511,-0.2446,-0.2419,-0.2351,-0.2373,-0.2357,-0.2317,-0.2313,-0.2292,-0.2288,-0.2284,-0.2209,-0.2197,-0.2333,-0.2332,-0.2332,-0.2332,0,-0.212,-0.2149,-0.2132,-0.2192,-0.223,-0.2247,-0.2328,-0.2362,-0.2403,-0.2428,-0.2408,-0.2396,-0.2361,-0.2361,-0.2361,-0.2326,-0.2301,-0.2314,-0.2276,-0.2283,-0.2205,-0.2191,-0.2336,-0.2335,-0.2334,-0.2334,0,0,-0.1981,-0.2068,-0.2067,-0.2106,-0.219,-0.2222,-0.2236,-0.2296,-0.2305,-0.2328,-0.2329,-0.2293,-0.2324,-0.229,-0.2305,-0.2281,-0.2246,-0.2295,-0.2292,-0.2214,-0.2129,-0.2028,-0.2003,-0.2261,-0.226,-0.2258,-0.2081,0,-0.1911,-0.192,-0.1985,-0.2006,-0.2038,-0.2135,-0.2157,-0.2209,-0.2249,-0.2274,-0.2267,-0.2264,-0.2281,-0.2295,-0.227,-0.2283,-0.2215,-0.2291,-0.2139,-0.2133,-0.2037,-0.1986,-0.1892,-0.172,-0.2068,-0.2066,-0.2064,0,-0.1844,-0.1875,-0.1887,-0.1985,-0.2003,-0.2019,-0.2105,-0.2137,-0.2176,-0.2204,-0.219,-0.2214,-0.2207,-0.2233,-0.2156,-0.2209,-0.2158,-0.2137,-0.213,-0.2007,-0.2007,-0.1772,-0.1682,-0.1689,-0.2043,-0.2045,-0.2047,0,-0.1774,-0.1824,-0.1847,-0.1875,-0.1972,-0.1989,-0.2043,-0.2097,-0.2145,-0.217,-0.2192,-0.2163,-0.2157,-0.2118,-0.2081,-0.2134,-0.1969,-0.2033,-0.1852,-0.1843,-0.1714,-0.1696,-0.1601,-0.1915,-0.1915,-0.1916,-0.1916,0,-0.172,-0.1735,-0.1816,-0.1828,-0.1872,-0.1943,-0.1986,-0.2033,-0.2095,-0.2051,-0.2155,-0.2082,-0.2134,-0.2058,-0.2037,-0.1877,-0.191,-0.1812,-0.1782,-0.1724,-0.1711,-0.1671,-0.1725,-0.1909,-0.191,-0.1912,-0.1913,0,-0.1645,-0.1695,-0.1735,-0.1815,-0.1844,-0.1875,-0.1991,-0.1994,-0.2073,-0.2022,-0.2036,-0.2039,-0.1914,-0.192,-0.1817,-0.178,-0.1638,-0.159,-0.1502,-0.1465,-0.1359,-0.1418,-0.1274,-0.1241,-0.1399,-0.1396,-0.1393,0,-0.1607,-0.1615,-0.1715,-0.1729,-0.176,-0.1829,-0.1851,-0.197,-0.1949,-0.19,-0.1827,-0.1762,-0.1565,-0.1444,-0.1425,-0.1339,-0.1406,-0.1205,-0.1294,-0.1295,-0.1341,-0.1415,-0.1406,-0.1133,-0.1128,-0.1124,-0.1121,0,-0.1522,-0.156,-0.1586,-0.1631,-0.1655,-0.1694,-0.1708,-0.1706,-0.1711,-0.165,-0.1394,-0.1245,-0.1135,-0.0997,-0.0997,-0.0961,-0.1208,-0.1117,-0.1145,-0.1125,-0.117,-0.1142,-0.1302,-0.1085,-0.1088,-0.1091,-0.1093,-0.1095,-0.1441,-0.1445,-0.147,-0.1501,-0.152,-0.1448,-0.14,-0.1351,-0.1249,-0.1022,-0.0933,-0.0641,-0.0645,-0.0637,-0.0642,-0.0746,-0.0861,-0.078,-0.0847,-0.0916,-0.09,-0.0956,-0.0703,-0.0704,-0.0706,-0.0707,-0.0708,0,-0.1309,-0.1307,-0.1325,-0.1315,-0.1236,-0.1308,-0.1213,-0.1098,-0.0833,-0.0617,-0.0358,-0.0122,-0.0127,-0.0273,-0.0473,-0.05,-0.0561,-0.0548,-0.0657,-0.0658,-0.07,-0.0705,-0.0409,-0.0409,-0.0409,-0.0409,-0.0409,-0.0409,-0.1235,-0.1179,-0.1189,-0.1017,-0.0985,-0.0817,-0.0709,-0.0542,-0.0389,-0.0004,0.0209,0.0331,0.0123,-0.0231,-0.0437,-0.0449,-0.0523,-0.049,-0.0565,-0.0641,-0.0671,-0.0699,-0.0715,-0.0425,-0.0425,-0.0481,-0.0481,-0.0482]},{"header":{"parameterUnit":"m.s-1","parameterCategory":2,"la1":30.2991,"la2":30.254,"lo1":-89.0895,"lo2":-89.0444,"dy":0.0017,"dx":0.0017,"nx":28,"ny":28,"refTime":"2025-05-18T21:00:00:Z","depth":"0","parameterNumber":3,"parameterNumberName":"V-component_of_CURRENTS"},"data":[0,0,0,0,0,0,0,0,0,0,0,0,0,0,0,0,0,0,0,0,0,0,0,0,0,0,0,0,0,0,0,0,0,0,0,0,0,0,0,0,0,0,0,0,0,0,0,0,0,0,0,0,0,0,0,0,0,0,0.032,0.0323,0,0.0499,0.05,0.0501,0.0592,0.0592,0.0593,0.0594,0.0585,0.0584,0.0583,0,0,0,0,0,0,0,0,0,0,0,0,0,0.0101,0.0104,0.032,0.0323,0.0326,0.0498,0.05,0.0502,0.0591,0.0592,0.0593,0.0594,0.0585,0.0584,0.0583,0,0,0,0,0,0,0,0,0,0,0,0,0,0.0223,0.0105,0.032,0.0397,0.0406,0.0498,0.05,0.0502,0.0591,0.0592,0.0593,0.0594,0.0585,0.0584,0.0583,0.0554,0,0,0.0579,0.0578,0,0,0,0,0,0,0,0,0.0216,0.023,0.0382,0.0392,0.0402,0.053,0.042,0.0513,0.0591,0.0513,0.0594,0.0595,0.0553,0.0554,0.0578,0.0553,0.0553,0.0579,0.0578,0.0577,0.0577,0,0,0,0,0,0,0,0.0207,0.0223,0.0384,0.0386,0.0398,0.0438,0.0455,0.0439,0.0516,0.052,0.0529,0.056,0.0556,0.0579,0.0578,0.0553,0.0579,0.0577,0.0577,0.0576,0.0508,0.0507,0,0,0,0,0,0,0.0196,0.0215,0.0378,0.039,0.0317,0.0441,0.046,0.0482,0.0521,0.0531,0.0559,0.0563,0.0581,0.058,0.0578,0.0533,0.0577,0.0576,0.0575,0.0509,0.0508,0.0506,0,0,0,0,0,0,0.019,0.0208,0.0371,0.0312,0.0337,0.0444,0.0468,0.0485,0.0512,0.0553,0.0559,0.0569,0.0582,0.058,0.0558,0.0533,0.0575,0.0574,0.051,0.0508,0.0507,0.0449,0,0,0,0,0,0,0.0183,0.0205,0.0199,0.0311,0.034,0.0414,0.0469,0.0488,0.0533,0.054,0.0563,0.0565,0.0583,0.056,0.0556,0.0532,0.0573,0.0511,0.0509,0.0507,0.0452,0.0445,0.044,0,0,0,0,0,0.0174,0.0163,0.0197,0.0217,0.0334,0.0414,0.043,0.0506,0.0532,0.0534,0.055,0.0564,0.0546,0.0557,0.0554,0.0528,0.0512,0.051,0.0508,0.0455,0.0447,0.044,0,0,0,0,0,0,0.0054,0.0175,0.0214,0.0237,0.0316,0.0431,0.0437,0.0496,0.0516,0.0506,0.0545,0.0546,0.0527,0.0528,0.054,0.0505,0.0533,0.053,0.0493,0.0486,0.048,0.0425,0.0572,0,0,0,0,0,0.0028,0.0053,0.0175,0.0187,0.0221,0.0325,0.0362,0.0416,0.0465,0.0478,0.0509,0.0517,0.0514,0.05,0.0507,0.0468,0.05,0.0452,0.0446,0.0441,0.0394,0.0402,0.0393,0.0499,0.0499,0.0499,0,0,-0.0013,0.0053,0.0068,0.0163,0.0223,0.0239,0.0346,0.0391,0.0389,0.0464,0.0452,0.0499,0.0504,0.0483,0.0471,0.0476,0.0448,0.0438,0.0433,0.0388,0.0399,0.0389,0.0379,0.0497,0.0498,0.0498,0,0,-0.009,-0.0029,-0.0035,0.0015,0.0104,0.0168,0.0177,0.0291,0.0322,0.0336,0.0387,0.0409,0.0417,0.042,0.0416,0.0368,0.0427,0.0384,0.0289,0.03,0.0291,0.0282,0.0399,0.0401,0.0366,0.0366,0.0366,0,-0.015,-0.0131,-0.0028,-0.0032,-0.0008,0.0124,0.0107,0.015,0.0241,0.0247,0.0312,0.0344,0.0377,0.0319,0.0327,0.035,0.0402,0.0321,0.0291,0.0283,0.0275,0.0396,0.0399,0.0363,0.0364,0.0364,0.0364,0,-0.022,-0.0219,-0.0224,-0.0187,-0.0159,-0.0143,-0.0063,-0.004,0.0032,0.0093,0.0104,0.0177,0.0188,0.0225,0.0262,0.022,0.0298,0.0298,0.0308,0.0261,0.0393,0.0397,0.0359,0.036,0.0361,0.0362,0,0,-0.0297,-0.0277,-0.0277,-0.03,-0.0235,-0.0218,-0.0243,-0.0206,-0.0215,-0.0125,-0.0124,-0.0086,-0.0007,-0.0008,0.0063,0.0084,0.0145,0.0164,0.0167,0.0278,0.0249,0.0288,0.0299,0.0141,0.0139,0.0138,0.0395,0,-0.0374,-0.043,-0.0391,-0.0459,-0.0478,-0.0407,-0.0439,-0.0408,-0.0328,-0.029,-0.022,-0.0184,-0.0113,-0.0071,-0.0054,0.0115,0.0139,0.008,0.0275,0.0282,0.0318,0.0296,0.0343,0.057,0.04,0.0401,0.0401,0,-0.0434,-0.0466,-0.0543,-0.0592,-0.0594,-0.0624,-0.0629,-0.0634,-0.0576,-0.0515,-0.0478,-0.0372,-0.0312,-0.0236,-0.0064,-0.0096,0.0037,0.0163,0.0175,0.0211,0.0324,0.057,0.0586,0.0673,0.0409,0.0408,0.0408,0,-0.0507,-0.0568,-0.0637,-0.0649,-0.0683,-0.0723,-0.0737,-0.0704,-0.0675,-0.0641,-0.0547,-0.0521,-0.0376,-0.0304,-0.0023,-0.0044,0.0214,0.0217,0.0366,0.0378,0.0447,0.0464,0.0549,0.0266,0.0265,0.0264,0.0264,0,-0.0576,-0.0633,-0.0683,-0.0719,-0.0823,-0.0816,-0.0873,-0.0875,-0.0804,-0.0706,-0.0659,-0.0505,-0.0381,-0.0183,-0.0049,0.021,0.0185,0.0337,0.0409,0.0441,0.0453,0.0553,0.0575,0.0274,0.0272,0.027,0.0268,0,-0.063,-0.0654,-0.0749,-0.0824,-0.0853,-0.0927,-0.0936,-0.0925,-0.0861,-0.0708,-0.0675,-0.0442,-0.0188,-0.0049,0.0189,0.027,0.0514,0.0516,0.0598,0.0668,0.0815,0.0832,0.0955,0.1044,0.0697,0.0699,0.07,0,-0.0661,-0.0709,-0.0825,-0.0871,-0.0905,-0.0989,-0.0999,-0.0978,-0.0885,-0.06,-0.047,-0.0209,0.0071,0.0398,0.047,0.0633,0.0686,0.079,0.0687,0.0808,0.0882,0.0874,0.094,0.0836,0.0838,0.084,0.0842,0,-0.0715,-0.0749,-0.0821,-0.0916,-0.096,-0.0989,-0.0962,-0.0887,-0.0728,-0.0528,-0.0135,0.0105,0.0406,0.0627,0.0755,0.0843,0.0842,0.0837,0.0918,0.0931,0.097,0.1099,0.0764,0.0861,0.0859,0.0858,0.0857,0.0856,-0.0738,-0.08,-0.0864,-0.0948,-0.0974,-0.0895,-0.0851,-0.0699,-0.0487,-0.0077,0.0117,0.0523,0.0772,0.0951,0.0993,0.1064,0.102,0.1127,0.1141,0.1125,0.1156,0.0886,0.1057,0.1056,0.1056,0.1055,0.1055,0,-0.0733,-0.0784,-0.087,-0.0909,-0.0859,-0.089,-0.0736,-0.0587,-0.0247,0.0101,0.046,0.0926,0.1127,0.1231,0.1298,0.1366,0.1363,0.1427,0.1427,0.1481,0.1229,0.1174,0.1427,0.1427,0.1426,0.1426,0.1426,0.1426,-0.0731,-0.0782,-0.0823,-0.0758,-0.0744,-0.0598,-0.0475,-0.0235,0.0013,0.0551,0.0896,0.1167,0.1416,0.1513,0.1601,0.1625,0.173,0.1704,0.1766,0.1579,0.1551,0.1525,0.1477,0.179,0.179,0.2031,0.2033,0.2035]}],[{"header":{"parameterUnit":"m.s-1","parameterCategory":2,"la1":30.2991,"la2":30.254,"lo1":-89.0895,"lo2":-89.0444,"dy":0.0017,"dx":0.0017,"nx":28,"ny":28,"refTime":"2025-05-18T21:00:00:Z","depth":"2","parameterNumber":2,"parameterNumberName":"U-component_of_CURRENTS"},"data":[0,0,0,0,0,0,0,0,0,0,0,0,0,0,0,0,0,0,0,0,0,0,0,0,0,0,0,0,0,0,0,0,0,0,0,0,0,0,0,0,0,0,0,0,0,0,0,0,0,0,0,0,0,0,0,0,0,0,-0.1925,-0.1926,0,-0.1951,-0.1951,-0.1951,-0.1982,-0.1983,-0.1984,-0.1985,-0.2113,-0.2116,-0.2118,0,0,0,0,0,0,0,0,0,0,0,0,0,-0.1876,-0.1876,-0.1925,-0.1926,-0.1926,-0.1951,-0.1951,-0.1951,-0.1982,-0.1983,-0.1984,-0.1985,-0.2112,-0.2115,-0.2118,0,0,0,0,0,0,0,0,0,0,0,0,0,-0.1895,-0.1876,-0.1925,-0.1948,-0.1951,-0.1951,-0.1951,-0.1951,-0.1982,-0.1983,-0.1985,-0.1986,-0.2111,-0.2115,-0.2119,-0.2115,0,0,-0.2131,-0.2132,0,0,0,0,0,0,0,0,-0.1894,-0.1896,-0.1944,-0.1947,-0.195,-0.1969,-0.1981,-0.2013,-0.1982,-0.1965,-0.1985,-0.1987,-0.2077,-0.2083,-0.2077,-0.2121,-0.2127,-0.2131,-0.2133,-0.2135,-0.2136,0,0,0,0,0,0,0,-0.1892,-0.1895,-0.1931,-0.1945,-0.1948,-0.1949,-0.1953,-0.1986,-0.2011,-0.1967,-0.197,-0.198,-0.2078,-0.2073,-0.2081,-0.2129,-0.2131,-0.2134,-0.2137,-0.2138,-0.2226,-0.2226,0,0,0,0,0,0,-0.1898,-0.1894,-0.193,-0.1932,-0.193,-0.1949,-0.1953,-0.1958,-0.2009,-0.2018,-0.1979,-0.1982,-0.2066,-0.2076,-0.2086,-0.2078,-0.2135,-0.2139,-0.2141,-0.2226,-0.2226,-0.2226,0,0,0,0,0,0,-0.1897,-0.1901,-0.1929,-0.1917,-0.1922,-0.1949,-0.1953,-0.1958,-0.197,-0.2018,-0.2029,-0.1991,-0.2067,-0.208,-0.2107,-0.2084,-0.214,-0.2144,-0.2226,-0.2226,-0.2226,-0.2068,0,0,0,0,0,0,-0.1895,-0.19,-0.1922,-0.1918,-0.1923,-0.192,-0.1953,-0.1957,-0.1976,-0.198,-0.2031,-0.2043,-0.2069,-0.2101,-0.2111,-0.2091,-0.2147,-0.2226,-0.2226,-0.2226,-0.2074,-0.2063,-0.2054,0,0,0,0,0,-0.1893,-0.1896,-0.1923,-0.1929,-0.1947,-0.1919,-0.192,-0.1942,-0.1975,-0.1962,-0.1999,-0.2042,-0.211,-0.2103,-0.2115,-0.2095,-0.2226,-0.2226,-0.2226,-0.2078,-0.2065,-0.2054,0,0,0,0,0,0,-0.1878,-0.19,-0.1929,-0.194,-0.1935,-0.1926,-0.1926,-0.1947,-0.1964,-0.1981,-0.203,-0.2042,-0.2044,-0.2109,-0.2101,-0.2127,-0.2181,-0.2183,-0.2064,-0.2053,-0.2043,-0.2075,-0.215,0,0,0,0,0,-0.189,-0.19,-0.1912,-0.1917,-0.1916,-0.1928,-0.1932,-0.1942,-0.1952,-0.1961,-0.1992,-0.2039,-0.205,-0.2084,-0.2098,-0.2125,-0.2158,-0.213,-0.212,-0.2111,-0.2149,-0.214,-0.2131,-0.2226,-0.2226,-0.2226,0,0,-0.1882,-0.19,-0.1905,-0.1916,-0.1915,-0.1916,-0.193,-0.1922,-0.1929,-0.1975,-0.1989,-0.1989,-0.2043,-0.2039,-0.2054,-0.2099,-0.2094,-0.2111,-0.2102,-0.2147,-0.2139,-0.2129,-0.2121,-0.2226,-0.2226,-0.2226,0,0,-0.1857,-0.1885,-0.1887,-0.1892,-0.1904,-0.1905,-0.1908,-0.1903,-0.1905,-0.1911,-0.1931,-0.1923,-0.1974,-0.1982,-0.2002,-0.1966,-0.2017,-0.1984,-0.1986,-0.1972,-0.1964,-0.1957,-0.1941,-0.1935,-0.2008,-0.2008,-0.2008,0,-0.1855,-0.1869,-0.1877,-0.1887,-0.1898,-0.1905,-0.1906,-0.1901,-0.1907,-0.1913,-0.1908,-0.1932,-0.1945,-0.1955,-0.1928,-0.1939,-0.1952,-0.2008,-0.1955,-0.1949,-0.1945,-0.1931,-0.1926,-0.2,-0.2001,-0.2002,-0.2003,0,-0.1834,-0.1862,-0.185,-0.1879,-0.1884,-0.1871,-0.188,-0.1879,-0.1885,-0.1889,-0.1873,-0.1859,-0.1895,-0.1869,-0.1887,-0.1871,-0.189,-0.1906,-0.197,-0.1925,-0.1914,-0.1911,-0.199,-0.1992,-0.1995,-0.1996,0,0,-0.1773,-0.183,-0.1828,-0.1859,-0.1883,-0.1875,-0.1885,-0.1887,-0.1913,-0.188,-0.1895,-0.185,-0.1849,-0.1875,-0.187,-0.1858,-0.1781,-0.1879,-0.1881,-0.184,-0.1754,-0.1644,-0.1631,-0.1781,-0.1781,-0.1781,-0.1741,0,-0.1753,-0.1779,-0.1812,-0.1834,-0.1846,-0.1875,-0.189,-0.1903,-0.1906,-0.1916,-0.1885,-0.189,-0.1853,-0.1858,-0.1826,-0.1809,-0.1777,-0.1792,-0.1831,-0.1833,-0.1719,-0.1624,-0.1507,-0.1452,-0.1738,-0.1738,-0.1738,0,-0.1722,-0.1749,-0.1769,-0.1839,-0.1845,-0.186,-0.1899,-0.1913,-0.1938,-0.1947,-0.1944,-0.1942,-0.1918,-0.1884,-0.1828,-0.1844,-0.1796,-0.1765,-0.1763,-0.173,-0.1718,-0.1558,-0.1437,-0.1733,-0.1734,-0.1734,-0.1734,0,-0.1667,-0.1721,-0.1739,-0.1758,-0.1826,-0.1841,-0.187,-0.1912,-0.1948,-0.1972,-0.2011,-0.1978,-0.1973,-0.1915,-0.1828,-0.1846,-0.1749,-0.1771,-0.1622,-0.1614,-0.1563,-0.1551,-0.1716,-0.1716,-0.1716,-0.1716,-0.1717,0,-0.1633,-0.1648,-0.1717,-0.1725,-0.1751,-0.1813,-0.1851,-0.1884,-0.196,-0.1996,-0.2023,-0.2023,-0.1981,-0.1921,-0.1842,-0.17,-0.1755,-0.1609,-0.1589,-0.15,-0.1483,-0.1793,-0.1803,-0.1715,-0.1715,-0.1716,-0.1716,0,-0.1566,-0.1613,-0.1639,-0.1706,-0.1725,-0.1738,-0.1844,-0.1882,-0.1971,-0.2023,-0.2043,-0.2067,-0.1962,-0.1888,-0.1777,-0.1711,-0.1596,-0.1526,-0.1414,-0.1379,-0.1479,-0.1481,-0.1397,-0.1393,-0.1389,-0.1386,-0.1383,0,-0.1535,-0.1541,-0.1602,-0.1609,-0.1633,-0.1682,-0.172,-0.1845,-0.1907,-0.2014,-0.203,-0.1985,-0.1886,-0.1693,-0.1528,-0.1361,-0.1438,-0.1215,-0.1218,-0.1453,-0.1443,-0.1451,-0.1459,-0.1083,-0.1078,-0.1074,-0.1071,0,-0.1465,-0.1485,-0.1499,-0.1516,-0.1546,-0.1603,-0.1677,-0.1735,-0.1873,-0.1936,-0.1932,-0.1866,-0.1672,-0.1415,-0.1222,-0.1117,-0.1237,-0.1127,-0.1394,-0.1171,-0.115,-0.1143,-0.1161,-0.1036,-0.1039,-0.1042,-0.1044,-0.1045,-0.1395,-0.1385,-0.1398,-0.1401,-0.1445,-0.1482,-0.1484,-0.158,-0.1642,-0.168,-0.1735,-0.1589,-0.1519,-0.1107,-0.0963,-0.0826,-0.092,-0.0916,-0.0932,-0.0951,-0.0911,-0.0883,-0.0711,-0.0713,-0.0714,-0.0715,-0.0716,0,-0.1302,-0.1291,-0.1286,-0.1289,-0.1281,-0.1363,-0.1424,-0.1398,-0.1386,-0.143,-0.1404,-0.1208,-0.1012,-0.0889,-0.0607,-0.0553,-0.058,-0.0543,-0.0605,-0.0639,-0.0669,-0.0619,-0.034,-0.0339,-0.0338,-0.0337,0,0,-0.1247,-0.1199,-0.1188,-0.1111,-0.1128,-0.1106,-0.1108,-0.1073,-0.107,-0.0978,-0.092,-0.101,-0.0931,-0.0705,-0.0606,-0.0422,-0.0544,-0.0388,-0.0687,-0.0798,-0.0829,-0.0869,-0.0825,0,0,0,0,0]},{"header":{"parameterUnit":"m.s-1","parameterCategory":2,"la1":30.2991,"la2":30.254,"lo1":-89.0895,"lo2":-89.0444,"dy":0.0017,"dx":0.0017,"nx":28,"ny":28,"refTime":"2025-05-18T21:00:00:Z","depth":"2","parameterNumber":3,"parameterNumberName":"V-component_of_CURRENTS"},"data":[0,0,0,0,0,0,0,0,0,0,0,0,0,0,0,0,0,0,0,0,0,0,0,0,0,0,0,0,0,0,0,0,0,0,0,0,0,0,0,0,0,0,0,0,0,0,0,0,0,0,0,0,0,0,0,0,0,0,-0.0465,-0.0465,0,-0.0457,-0.0457,-0.0457,-0.0438,-0.0438,-0.0438,-0.0438,-0.0233,-0.0228,-0.0222,0,0,0,0,0,0,0,0,0,0,0,0,0,-0.0449,-0.045,-0.0465,-0.0465,-0.0465,-0.0457,-0.0457,-0.0457,-0.0438,-0.0438,-0.0438,-0.0437,-0.0234,-0.0228,-0.0222,0,0,0,0,0,0,0,0,0,0,0,0,0,-0.0449,-0.045,-0.0465,-0.0456,-0.0455,-0.0457,-0.0457,-0.0456,-0.0439,-0.0438,-0.0438,-0.0437,-0.0236,-0.0229,-0.0221,-0.0181,0,0,-0.0197,-0.0194,0,0,0,0,0,0,0,0,-0.0449,-0.045,-0.0457,-0.0456,-0.0455,-0.0449,-0.0376,-0.0355,-0.0439,-0.0444,-0.0438,-0.0437,-0.0288,-0.0276,-0.0276,-0.0172,-0.0163,-0.0197,-0.0192,-0.0188,-0.0186,0,0,0,0,0,0,0,-0.0449,-0.045,-0.0461,-0.0457,-0.0456,-0.0447,-0.0446,-0.0373,-0.0364,-0.0443,-0.0442,-0.0443,-0.0286,-0.0284,-0.0271,-0.016,-0.0197,-0.019,-0.0185,-0.0182,0.0092,0.0094,0,0,0,0,0,0,-0.0454,-0.045,-0.0461,-0.0461,-0.0452,-0.0448,-0.0447,-0.0451,-0.0369,-0.0358,-0.0443,-0.0442,-0.0298,-0.028,-0.0263,-0.0193,-0.0189,-0.0181,-0.0177,0.0089,0.0092,0.0095,0,0,0,0,0,0,-0.0453,-0.0455,-0.0461,-0.0456,-0.0456,-0.0448,-0.0453,-0.0451,-0.0449,-0.0371,-0.0356,-0.0444,-0.0297,-0.0274,-0.0196,-0.0185,-0.0178,-0.0171,0.0086,0.009,0.0094,-0.0062,0,0,0,0,0,0,-0.0453,-0.0455,-0.0448,-0.0456,-0.0456,-0.0461,-0.0453,-0.0451,-0.0451,-0.0449,-0.0366,-0.0347,-0.0295,-0.0209,-0.0189,-0.0174,-0.0165,0.0083,0.0088,0.0092,-0.006,-0.0064,-0.0067,0,0,0,0,0,-0.0453,-0.0451,-0.0448,-0.0448,-0.0451,-0.0461,-0.046,-0.0452,-0.0452,-0.045,-0.0394,-0.035,-0.0162,-0.0202,-0.0179,-0.0161,0.008,0.0086,0.0092,-0.0058,-0.0063,-0.0067,0,0,0,0,0,0,-0.0446,-0.0449,-0.0446,-0.0446,-0.0451,-0.0458,-0.0454,-0.0456,-0.0417,-0.0406,-0.0339,-0.0315,-0.0253,-0.0162,-0.0208,-0.0056,-0.0023,-0.0013,-0.0145,-0.0148,-0.0152,-0.0146,-0.0158,0,0,0,0,0,-0.044,-0.044,-0.0445,-0.0448,-0.0449,-0.0453,-0.0453,-0.0452,-0.0427,-0.0412,-0.0359,-0.0273,-0.0209,-0.0147,-0.0083,0.0005,0.0056,0.0048,0.0044,0.004,0.0068,0.0114,0.0114,0.0114,0.0114,0.0114,0,0,-0.0443,-0.0442,-0.0444,-0.0446,-0.0449,-0.0448,-0.0452,-0.0456,-0.0446,-0.0388,-0.0346,-0.0306,-0.0195,-0.0126,-0.0081,-0.0045,0.0067,0.0047,0.0041,0.0074,0.0119,0.0118,0.0118,0.0118,0.0117,0.0117,0,0,-0.0452,-0.0445,-0.0447,-0.0446,-0.0447,-0.0445,-0.0449,-0.0451,-0.0439,-0.0399,-0.0364,-0.0312,-0.0195,-0.0131,-0.0078,-0.004,0.0016,-0.0002,0.0012,0.0052,0.0051,0.005,0.0085,0.0089,0.003,0.0029,0.0029,0,-0.0451,-0.0459,-0.045,-0.0449,-0.045,-0.0446,-0.0452,-0.0433,-0.0409,-0.0388,-0.0386,-0.0258,-0.0194,-0.0101,-0.0095,-0.0055,-0.0021,-0.0007,0.0038,0.0039,0.0041,0.0078,0.0084,0.0023,0.0023,0.0024,0.0025,0,-0.0464,-0.0464,-0.0468,-0.0461,-0.0453,-0.0464,-0.0441,-0.0425,-0.0414,-0.0392,-0.0331,-0.0266,-0.0178,-0.0155,-0.0115,-0.005,-0.0033,-0.0018,0.002,0.003,0.0071,0.0079,0.0013,0.0015,0.0017,0.0019,0,0,-0.0488,-0.048,-0.0482,-0.0484,-0.0466,-0.0469,-0.0435,-0.0411,-0.0387,-0.0348,-0.0318,-0.0229,-0.0208,-0.0141,-0.0095,-0.0042,-0.0036,-0.0018,-0.0013,-0.0031,0.0048,0.0082,0.0096,-0.0034,-0.0032,-0.0031,0.0056,0,-0.0509,-0.0519,-0.0501,-0.0506,-0.0516,-0.0485,-0.0454,-0.0416,-0.0382,-0.0343,-0.0272,-0.0232,-0.0193,-0.0178,-0.0118,-0.0067,-0.0012,-0.006,0.0089,0.0095,0.0082,0.0108,0.0092,0.0172,0.0066,0.0067,0.0068,0,-0.0533,-0.0538,-0.0555,-0.0539,-0.0537,-0.0528,-0.0487,-0.0459,-0.0381,-0.0355,-0.0289,-0.0248,-0.0166,-0.0156,-0.0024,-0.0063,-0.0003,0.0042,0.0046,0.015,0.0148,0.0161,0.0193,0.0084,0.0083,0.0082,0.0081,0,-0.0578,-0.0575,-0.0595,-0.0592,-0.0565,-0.0558,-0.0537,-0.0467,-0.0457,-0.0376,-0.0377,-0.0251,-0.0216,-0.012,-0.0014,-0.003,0.0121,0.0108,0.0207,0.0209,0.0271,0.0277,0.0209,0.0209,0.0209,0.0209,0.0208,0,-0.0619,-0.0631,-0.0621,-0.0635,-0.064,-0.06,-0.0593,-0.0545,-0.0507,-0.0486,-0.0399,-0.034,-0.021,-0.0109,-0.0014,0.0137,0.0128,0.0228,0.0245,0.0218,0.0218,0.0215,0.0215,0.0212,0.0211,0.0211,0.021,0,-0.0668,-0.0664,-0.0685,-0.0673,-0.0668,-0.0672,-0.0667,-0.0664,-0.0616,-0.0596,-0.0591,-0.0425,-0.0253,-0.0123,0.0058,0.0134,0.0265,0.0321,0.0282,0.0294,0.0322,0.0313,0.0433,0.0435,0.0437,0.0438,0.044,0,-0.0695,-0.0716,-0.0726,-0.0745,-0.0746,-0.0753,-0.0762,-0.0724,-0.0734,-0.0619,-0.062,-0.0441,-0.026,0.002,0.0189,0.0366,0.0358,0.0431,0.0412,0.0346,0.035,0.0338,0.0328,0.042,0.0421,0.0422,0.0423,0,-0.0746,-0.0752,-0.077,-0.0814,-0.084,-0.0869,-0.0884,-0.0907,-0.0848,-0.0793,-0.0627,-0.0459,-0.015,0.0113,0.0328,0.0428,0.0396,0.0455,0.0412,0.0365,0.0342,0.0343,0.0331,0.043,0.043,0.0429,0.0429,0.0428,-0.0778,-0.0807,-0.084,-0.0878,-0.0922,-0.0975,-0.0977,-0.097,-0.0933,-0.0803,-0.064,-0.035,-0.0147,0.0231,0.038,0.0516,0.0516,0.0523,0.0517,0.0511,0.0494,0.0475,0.0585,0.0585,0.0585,0.0585,0.0585,0,-0.0824,-0.0855,-0.0901,-0.0957,-0.1024,-0.1037,-0.1051,-0.1022,-0.0933,-0.0734,-0.054,-0.0297,-0.0002,0.0235,0.0467,0.0572,0.0543,0.0584,0.0517,0.0511,0.0504,0.0483,0.0573,0.0573,0.0573,0.0573,0,0,-0.0847,-0.0905,-0.093,-0.1035,-0.1088,-0.1155,-0.1149,-0.1044,-0.0881,-0.0636,-0.0404,-0.0209,0.0074,0.0186,0.0334,0.0492,0.047,0.05,0.0502,0.0401,0.0393,0.0466,0.0426,0,0,0,0,0]}],[{"header":{"parameterUnit":"m.s-1","parameterCategory":2,"la1":30.2991,"la2":30.254,"lo1":-89.0895,"lo2":-89.0444,"dy":0.0017,"dx":0.0017,"nx":28,"ny":28,"refTime":"2025-05-18T21:00:00:Z","depth":"4","parameterNumber":2,"parameterNumberName":"U-component_of_CURRENTS"},"data":[0,0,0,0,0,0,0,0,0,0,0,0,0,0,0,0,0,0,0,0,0,0,0,0,0,0,0,0,0,0,0,0,0,0,0,0,0,0,0,0,0,0,0,0,0,0,0,0,0,0,0,0,0,0,0,0,0,0,-0.1226,-0.1227,0,-0.1276,-0.1276,-0.1277,-0.1306,-0.1307,-0.1307,-0.1307,-0.136,-0.1361,-0.1362,0,0,0,0,0,0,0,0,0,0,0,0,0,-0.1176,-0.1177,-0.1226,-0.1227,-0.1228,-0.1276,-0.1276,-0.1277,-0.1306,-0.1307,-0.1307,-0.1307,-0.136,-0.1361,-0.1362,0,0,0,0,0,0,0,0,0,0,0,0,0,-0.1208,-0.1177,-0.1226,-0.1249,-0.1252,-0.1275,-0.1276,-0.1277,-0.1306,-0.1307,-0.1307,-0.1307,-0.1359,-0.1361,-0.1363,-0.1366,0,0,-0.1368,-0.1369,0,0,0,0,0,0,0,0,-0.1206,-0.1209,-0.1245,-0.1248,-0.1251,-0.1286,-0.1278,-0.1307,-0.1306,-0.1284,-0.1307,-0.1308,-0.1336,-0.134,-0.1346,-0.1368,-0.1371,-0.1368,-0.1369,-0.137,-0.137,0,0,0,0,0,0,0,-0.1204,-0.1207,-0.1245,-0.1246,-0.1249,-0.1264,-0.1268,-0.1284,-0.1307,-0.1286,-0.1289,-0.1296,-0.1338,-0.1345,-0.1348,-0.1371,-0.1368,-0.137,-0.1371,-0.1371,-0.1419,-0.1419,0,0,0,0,0,0,-0.1199,-0.1205,-0.1243,-0.1246,-0.123,-0.1264,-0.1269,-0.1273,-0.1306,-0.1312,-0.1296,-0.1297,-0.1342,-0.1346,-0.135,-0.1401,-0.137,-0.1372,-0.1373,-0.1419,-0.1419,-0.1419,0,0,0,0,0,0,-0.1197,-0.1201,-0.1241,-0.1228,-0.1234,-0.1265,-0.1269,-0.1274,-0.1304,-0.1314,-0.132,-0.1323,-0.1342,-0.1348,-0.1377,-0.1401,-0.1372,-0.1374,-0.1418,-0.1419,-0.1419,-0.1473,0,0,0,0,0,0,-0.1196,-0.12,-0.1212,-0.1228,-0.1235,-0.1266,-0.1269,-0.1275,-0.1307,-0.131,-0.1339,-0.1343,-0.1343,-0.1375,-0.1379,-0.1403,-0.1375,-0.1418,-0.1418,-0.1419,-0.1471,-0.1476,-0.1479,0,0,0,0,0,-0.1194,-0.1207,-0.1212,-0.1217,-0.1246,-0.1267,-0.1272,-0.1294,-0.1308,-0.1322,-0.1341,-0.1343,-0.138,-0.1377,-0.1382,-0.1407,-0.1418,-0.1418,-0.1419,-0.147,-0.1475,-0.1479,0,0,0,0,0,0,-0.1198,-0.1211,-0.1218,-0.1237,-0.1255,-0.1272,-0.1298,-0.1308,-0.1334,-0.1346,-0.1353,-0.1358,-0.1388,-0.1387,-0.1383,-0.1417,-0.1396,-0.1398,-0.1433,-0.1438,-0.1442,-0.1443,-0.1377,0,0,0,0,0,-0.1201,-0.1212,-0.1228,-0.1246,-0.1262,-0.1284,-0.1301,-0.1312,-0.1333,-0.1347,-0.1365,-0.138,-0.139,-0.1407,-0.1412,-0.1442,-0.1421,-0.1456,-0.146,-0.1464,-0.1466,-0.1449,-0.1452,-0.1421,-0.1421,-0.1421,0,0,-0.1209,-0.1218,-0.1226,-0.1247,-0.1271,-0.1301,-0.1296,-0.1329,-0.1354,-0.1348,-0.1397,-0.1396,-0.1397,-0.1424,-0.1437,-0.1432,-0.146,-0.1464,-0.1468,-0.1468,-0.145,-0.1453,-0.1456,-0.1421,-0.1421,-0.1421,0,0,-0.1231,-0.1242,-0.1264,-0.1283,-0.1316,-0.1327,-0.1341,-0.137,-0.1387,-0.1423,-0.1418,-0.1431,-0.1463,-0.1461,-0.1465,-0.1493,-0.1476,-0.1497,-0.1531,-0.1516,-0.1518,-0.152,-0.1496,-0.1496,-0.1507,-0.1507,-0.1507,0,-0.1247,-0.1265,-0.1275,-0.1307,-0.1328,-0.1344,-0.1376,-0.1398,-0.1429,-0.144,-0.1447,-0.1472,-0.1478,-0.1496,-0.1507,-0.1505,-0.1488,-0.1519,-0.1522,-0.1523,-0.1525,-0.1499,-0.1498,-0.1509,-0.1509,-0.1509,-0.1509,0,-0.1275,-0.1306,-0.1327,-0.1366,-0.139,-0.1419,-0.1446,-0.1473,-0.1495,-0.1505,-0.153,-0.153,-0.154,-0.1546,-0.1543,-0.1554,-0.1536,-0.1524,-0.1514,-0.1531,-0.1503,-0.1501,-0.1513,-0.1512,-0.1511,-0.1511,0,0,-0.126,-0.1333,-0.134,-0.1369,-0.142,-0.1437,-0.1488,-0.1518,-0.1544,-0.157,-0.1591,-0.161,-0.16,-0.1601,-0.1591,-0.1588,-0.1586,-0.157,-0.1568,-0.1552,-0.1546,-0.143,-0.1416,-0.1578,-0.1578,-0.1578,-0.1523,0,-0.128,-0.1342,-0.1371,-0.143,-0.1464,-0.1497,-0.1537,-0.1567,-0.1591,-0.1614,-0.1614,-0.1627,-0.1624,-0.1626,-0.1625,-0.1591,-0.1583,-0.1601,-0.1526,-0.1523,-0.1423,-0.141,-0.1578,-0.1521,-0.152,-0.152,-0.152,0,-0.1283,-0.1324,-0.1388,-0.1454,-0.1473,-0.1511,-0.1559,-0.1593,-0.1629,-0.1647,-0.1663,-0.1659,-0.1661,-0.1649,-0.1615,-0.1628,-0.1594,-0.1568,-0.1565,-0.1435,-0.1402,-0.1498,-0.1515,-0.1515,-0.1516,-0.1516,-0.1516,0,-0.1239,-0.1326,-0.1373,-0.1399,-0.1482,-0.1514,-0.155,-0.1599,-0.162,-0.1657,-0.1671,-0.1676,-0.1668,-0.164,-0.1593,-0.1607,-0.1537,-0.1545,-0.1407,-0.1399,-0.15,-0.1498,-0.1513,-0.1513,-0.1513,-0.1513,-0.1513,0,-0.1219,-0.1259,-0.136,-0.1383,-0.1429,-0.1494,-0.1533,-0.1574,-0.1621,-0.1628,-0.1674,-0.167,-0.1667,-0.163,-0.1591,-0.1477,-0.1531,-0.1401,-0.1372,-0.1522,-0.1524,-0.1497,-0.1496,-0.1511,-0.1511,-0.1512,-0.1512,0,-0.116,-0.1231,-0.1288,-0.1384,-0.1411,-0.1439,-0.1514,-0.153,-0.1596,-0.1605,-0.1614,-0.1657,-0.1598,-0.1567,-0.1505,-0.1451,-0.1368,-0.1315,-0.1467,-0.1449,-0.1247,-0.125,-0.1162,-0.1157,-0.1153,-0.115,-0.1147,0,-0.1134,-0.1163,-0.1269,-0.129,-0.1335,-0.1388,-0.1411,-0.1496,-0.1505,-0.1577,-0.1559,-0.1549,-0.1546,-0.137,-0.1363,-0.1254,-0.1237,-0.1205,-0.124,-0.1228,-0.1209,-0.1218,-0.1226,-0.1141,-0.114,-0.1139,-0.1138,0,-0.1078,-0.1129,-0.1171,-0.1213,-0.1249,-0.128,-0.1321,-0.1321,-0.1397,-0.1482,-0.1454,-0.1418,-0.1344,-0.1285,-0.1193,-0.1131,-0.1235,-0.1164,-0.1172,-0.1205,-0.1202,-0.1189,-0.1201,-0.1124,-0.1126,-0.1127,-0.1128,0,-0.1028,-0.1039,-0.1092,-0.1112,-0.115,-0.1139,-0.1186,-0.1192,-0.122,-0.131,-0.1298,-0.1293,-0.1332,-0.1219,-0.1144,-0.1054,-0.1043,-0.1029,-0.1045,-0.106,-0.1046,-0.1029,-0.0859,0,0,0,0,0,-0.0972,-0.0963,-0.0978,-0.0988,-0.1018,-0.1033,-0.1101,-0.1151,-0.1237,-0.1176,-0.1233,-0.1161,-0.1076,-0.1091,-0.0964,-0.1063,-0.1025,-0.0915,-0.1015,-0.1048,-0.1064,-0.1055,0,0,0,0,0,0,-0.0928,-0.0946,-0.094,-0.0868,-0.0845,-0.0859,-0.0897,-0.0964,-0.0944,-0.1046,-0.0998,-0.1086,-0.1002,-0.1098,-0.0935,-0.0929,-0.0968,-0.0922,-0.0919,-0.1039,-0.1053,-0.1066,-0.1062,0,0,0,0,0]},{"header":{"parameterUnit":"m.s-1","parameterCategory":2,"la1":30.2991,"la2":30.254,"lo1":-89.0895,"lo2":-89.0444,"dy":0.0017,"dx":0.0017,"nx":28,"ny":28,"refTime":"2025-05-18T21:00:00:Z","depth":"4","parameterNumber":3,"parameterNumberName":"V-component_of_CURRENTS"},"data":[0,0,0,0,0,0,0,0,0,0,0,0,0,0,0,0,0,0,0,0,0,0,0,0,0,0,0,0,0,0,0,0,0,0,0,0,0,0,0,0,0,0,0,0,0,0,0,0,0,0,0,0,0,0,0,0,0,0,-0.0423,-0.0423,0,-0.041,-0.0409,-0.0409,-0.0396,-0.0396,-0.0396,-0.0396,-0.0331,-0.0329,-0.0328,0,0,0,0,0,0,0,0,0,0,0,0,0,-0.0394,-0.0395,-0.0423,-0.0423,-0.0423,-0.041,-0.0409,-0.0409,-0.0396,-0.0396,-0.0396,-0.0396,-0.0332,-0.033,-0.0327,0,0,0,0,0,0,0,0,0,0,0,0,0,-0.0395,-0.0395,-0.0423,-0.0417,-0.0416,-0.041,-0.0409,-0.0409,-0.0396,-0.0396,-0.0396,-0.0396,-0.0332,-0.033,-0.0327,-0.031,0,0,-0.0319,-0.0318,0,0,0,0,0,0,0,0,-0.0395,-0.0395,-0.0417,-0.0417,-0.0416,-0.0406,-0.0375,-0.0374,-0.0396,-0.0401,-0.0396,-0.0396,-0.0353,-0.0349,-0.0344,-0.0307,-0.0305,-0.0319,-0.0317,-0.0316,-0.0315,0,0,0,0,0,0,0,-0.0395,-0.0396,-0.0416,-0.0418,-0.0417,-0.04,-0.04,-0.0375,-0.0374,-0.0401,-0.04,-0.0402,-0.0352,-0.0346,-0.0342,-0.0304,-0.0319,-0.0317,-0.0315,-0.0314,-0.026,-0.0261,0,0,0,0,0,0,-0.0403,-0.0396,-0.0416,-0.0415,-0.0408,-0.04,-0.0401,-0.0408,-0.0376,-0.0372,-0.0402,-0.0402,-0.0351,-0.0345,-0.034,-0.0295,-0.0316,-0.0314,-0.0312,-0.026,-0.026,-0.0261,0,0,0,0,0,0,-0.0402,-0.0405,-0.0417,-0.0406,-0.0407,-0.0402,-0.0409,-0.0408,-0.0407,-0.0378,-0.0373,-0.0404,-0.0351,-0.0343,-0.0323,-0.0293,-0.0313,-0.031,-0.026,-0.026,-0.0261,-0.022,0,0,0,0,0,0,-0.0402,-0.0405,-0.0412,-0.0407,-0.0408,-0.0415,-0.0409,-0.0407,-0.0409,-0.0408,-0.0377,-0.0371,-0.035,-0.0327,-0.032,-0.029,-0.0308,-0.026,-0.026,-0.026,-0.0221,-0.0219,-0.0217,0,0,0,0,0,-0.0401,-0.0407,-0.0413,-0.0415,-0.0419,-0.0415,-0.0413,-0.0408,-0.0409,-0.0407,-0.039,-0.0372,-0.0324,-0.0325,-0.0317,-0.0285,-0.026,-0.026,-0.026,-0.0222,-0.0219,-0.0217,0,0,0,0,0,0,-0.0396,-0.0406,-0.0412,-0.0422,-0.0422,-0.0414,-0.0411,-0.0412,-0.0398,-0.0397,-0.0372,-0.0364,-0.0337,-0.0327,-0.0329,-0.0276,-0.029,-0.0288,-0.0263,-0.026,-0.0258,-0.0244,-0.0306,0,0,0,0,0,-0.0401,-0.041,-0.0414,-0.0422,-0.0422,-0.0419,-0.0418,-0.0417,-0.0406,-0.0401,-0.038,-0.0359,-0.0331,-0.0311,-0.0294,-0.0259,-0.0245,-0.0239,-0.0236,-0.0234,-0.0221,-0.0171,-0.0161,-0.0262,-0.0262,-0.0262,0,0,-0.0403,-0.0409,-0.0415,-0.0422,-0.042,-0.0411,-0.0418,-0.0417,-0.0401,-0.0394,-0.0365,-0.0354,-0.0326,-0.0289,-0.0275,-0.0274,-0.0205,-0.0235,-0.0233,-0.022,-0.017,-0.0159,-0.015,-0.0262,-0.0262,-0.0262,0,0,-0.0402,-0.0415,-0.0418,-0.0415,-0.0417,-0.0411,-0.0414,-0.0409,-0.0398,-0.0379,-0.0365,-0.0333,-0.0307,-0.0263,-0.024,-0.0218,-0.0203,-0.0226,-0.0184,-0.0135,-0.0126,-0.0117,-0.0107,-0.0098,-0.0213,-0.0213,-0.0213,0,-0.0404,-0.0411,-0.0417,-0.0411,-0.0405,-0.0411,-0.0402,-0.0387,-0.0375,-0.0352,-0.0369,-0.0303,-0.0283,-0.0206,-0.0202,-0.0205,-0.0199,-0.0189,-0.0128,-0.0119,-0.0111,-0.0103,-0.0093,-0.0211,-0.0211,-0.0211,-0.0212,0,-0.04,-0.0404,-0.0402,-0.0396,-0.0386,-0.0385,-0.0366,-0.0353,-0.0347,-0.0324,-0.0272,-0.0245,-0.02,-0.019,-0.0186,-0.0113,-0.0137,-0.0137,-0.0127,-0.0098,-0.0093,-0.0083,-0.0208,-0.0209,-0.021,-0.021,0,0,-0.0413,-0.0403,-0.0404,-0.0397,-0.0381,-0.0374,-0.0337,-0.0301,-0.0268,-0.0247,-0.0195,-0.0142,-0.013,-0.0106,-0.009,-0.0044,0.0011,-0.0068,-0.0066,-0.0045,0.0087,0.0058,0.0065,0.002,0.0022,0.0024,0.006,0,-0.0412,-0.0404,-0.0392,-0.0374,-0.0367,-0.0345,-0.0307,-0.0269,-0.0238,-0.019,-0.0137,-0.0096,-0.0095,-0.008,-0.0026,-0.0013,0.004,-0.0001,0.0043,0.0044,0.0029,0.0078,0.0032,0.0067,0.0069,0.0071,0.0072,0,-0.0416,-0.041,-0.04,-0.0364,-0.0356,-0.0342,-0.0284,-0.0251,-0.0172,-0.0146,-0.008,-0.0052,0.0018,0.0004,0.0089,0.0054,0.0082,0.0098,0.01,0.0072,0.0035,0.0035,0.0089,0.0088,0.0087,0.0086,0.0084,0,-0.0436,-0.0413,-0.0408,-0.04,-0.0359,-0.0342,-0.0316,-0.0242,-0.022,-0.0124,-0.0114,-0.0004,0.0006,0.0081,0.0106,0.0099,0.0181,0.0178,0.019,0.0186,0.0183,0.0173,0.027,0.027,0.027,0.027,0.0269,0,-0.0444,-0.044,-0.0424,-0.0425,-0.0409,-0.0363,-0.0335,-0.0284,-0.0226,-0.021,-0.0107,-0.0084,0.0022,0.0072,0.0124,0.0172,0.0201,0.0213,0.021,0.0191,0.0183,0.0188,0.0178,0.0271,0.0271,0.027,0.027,0,-0.0471,-0.0462,-0.0462,-0.0433,-0.0428,-0.0421,-0.0395,-0.0375,-0.0309,-0.0292,-0.0274,-0.0162,-0.0083,0.0019,0.0126,0.0163,0.0235,0.0253,0.0204,0.0195,0.0202,0.0194,0.0281,0.0281,0.0281,0.028,0.028,0,-0.0482,-0.0489,-0.0493,-0.0511,-0.0509,-0.0498,-0.0499,-0.0434,-0.0425,-0.0354,-0.036,-0.0259,-0.0182,-0.0046,0.0076,0.0211,0.0227,0.0255,0.0268,0.0223,0.0212,0.0204,0.0196,0.028,0.028,0.028,0.0279,0,-0.0506,-0.0522,-0.0529,-0.0572,-0.0593,-0.0601,-0.06,-0.06,-0.0537,-0.0496,-0.043,-0.032,-0.022,-0.0065,0.0044,0.0138,0.0236,0.0253,0.0254,0.0267,0.0222,0.021,0.0202,0.0278,0.0279,0.0279,0.0279,0,-0.0536,-0.0559,-0.0591,-0.0622,-0.0661,-0.0688,-0.0672,-0.0656,-0.0628,-0.0546,-0.0534,-0.0381,-0.0283,-0.0105,-0.0012,0.0092,0.0122,0.0139,0.0147,0.0149,0.0107,0.0031,0.0045,0,0,0,0,0,-0.0557,-0.0593,-0.0635,-0.0671,-0.0715,-0.0731,-0.0734,-0.0711,-0.0667,-0.0638,-0.0578,-0.0474,-0.0286,-0.0179,-0.008,-0.0019,0.0133,0.0098,0.0153,0.0273,0.0274,0.0247,0,0,0,0,0,0,-0.0575,-0.0624,-0.0643,-0.071,-0.0744,-0.0783,-0.0786,-0.0756,-0.0715,-0.0657,-0.0542,-0.0477,-0.0276,-0.035,-0.0087,-0.005,-0.0009,0.02,0.0201,0.0272,0.0273,0.0274,0.0246,0,0,0,0,0]}]]